Easton, MD

6:33 AM EDT on July 21, 2017 (GMT -0400)
Easton / Newnam

Weather History for KESN - August, 2013

Change the Weather History Date:

Thursday, August 8, 2013

  Actual Average Record
Temperature  
Mean Temperature 80 °F -  
Max Temperature 86 °F 86 °F 98 °F (2007)
Min Temperature 73 °F 66 °F 54 °F (1950)
Cooling Degree Days 14    
Growing Degree Days 30 (Base 50)    
Moisture  
Dew Point 74 °F    
Average Humidity 88    
Maximum Humidity 97    
Minimum Humidity 66    
Precipitation  
Precipitation 0.00 in - - ()
Sea Level Pressure  
Sea Level Pressure 30.07 in    
Wind  
Wind Speed 9 mph (SSW)    
Max Wind Speed 17 mph    
Max Gust Speed 17 mph    
Visibility 10 miles    
Events      
Averages and records for this station are not official NWS values.
T = Trace of Precipitation, MM = Missing Value Source: NWS Daily Summary

Daily Weather History Graph

Daily Weather History Graph

Search for Another Location

Airport or City:

Trip Planner

Search our weather history database for the weather conditions in past years. The results will help you decide how hot, cold, wet, or windy it might be!

Date:

Astronomy

Aug. 08, 2013 Rise Set
Actual Time 6:11 AM EDT 8:07 PM EDT
Civil Twilight 5:42 AM EDT 8:36 PM EDT
Nautical Twilight 5:07 AM EDT 9:11 PM EDT
Astronomical Twilight 4:29 AM EDT 9:49 PM EDT
Moon 7:54 AM EDT (8/8) 8:46 PM EDT (8/8)
Length of Visible Light 14h 53m
Length of Day
13h 55m
Waxing Crescent, 3% of the Moon is Illuminated
Aug 8
Waxing Crescent
Aug 14
First Quarter
Aug 20
Full
Aug 28
Last Quarter
Sep 5
New

Hourly Weather History & Observations

Time (EDT) Temp. Heat Index Dew Point Humidity Pressure Visibility Wind Dir Wind Speed Gust Speed Precip Events Conditions
12:16 AM 73.4 °F - 70.9 °F 92% 30.09 in 10.0 mi South 8.1 mph - N/A   Clear
12:36 AM 73.6 °F - 71.6 °F 93% 30.09 in 10.0 mi South 8.1 mph - N/A   Clear
12:56 AM 73.9 °F - 72.0 °F 93% 30.09 in 10.0 mi South 6.9 mph - N/A   Clear
1:16 AM 74.5 °F - 72.5 °F 94% 30.09 in 10.0 mi SSW 8.1 mph - N/A   Clear
1:36 AM 74.8 °F - 72.5 °F 92% 30.09 in 10.0 mi SSW 8.1 mph - N/A   Clear
1:57 AM 75.2 °F - 72.7 °F 92% 30.08 in 10.0 mi SSW 8.1 mph - N/A   Scattered Clouds
2:17 AM 75.2 °F - 73.0 °F 93% 30.08 in 10.0 mi SSW 9.2 mph - N/A   Scattered Clouds
2:37 AM 75.2 °F - 73.4 °F 94% 30.08 in 10.0 mi SSW 9.2 mph - N/A   Scattered Clouds
2:57 AM 75.2 °F - 73.8 °F 95% 30.08 in 10.0 mi SSW 8.1 mph - N/A   Clear
3:17 AM 75.2 °F - 73.8 °F 95% 30.07 in 10.0 mi SSW 10.4 mph - N/A   Clear
3:37 AM 75.2 °F - 74.3 °F 97% 30.07 in 10.0 mi SSW 10.4 mph - N/A   Clear
3:57 AM 75.2 °F - 74.3 °F 97% 30.08 in 10.0 mi SW 8.1 mph - N/A   Clear
4:17 AM 75.2 °F - 74.3 °F 97% 30.07 in 10.0 mi SSW 9.2 mph - N/A   Clear
4:37 AM 75.4 °F - 73.6 °F 94% 30.07 in 10.0 mi SSW 10.4 mph - N/A   Clear
4:57 AM 75.4 °F - 73.4 °F 94% 30.06 in 10.0 mi SSW 10.4 mph - N/A   Clear
5:17 AM 75.2 °F - 73.4 °F 94% 30.06 in 10.0 mi SW 10.4 mph - N/A   Clear
5:37 AM 75.2 °F - 73.2 °F 94% 30.06 in 10.0 mi SW 10.4 mph - N/A   Clear
5:53 AM 75.2 °F - 73.4 °F 94% 30.06 in 10.0 mi SSW 9.2 mph - N/A   Mostly Cloudy
5:57 AM 74.8 °F - 73.4 °F 95% 30.06 in 10.0 mi SSW 9.2 mph - N/A   Clear
6:17 AM 74.5 °F - 73.4 °F 96% 30.08 in 10.0 mi SW 8.1 mph - N/A   Clear
6:37 AM 74.5 °F - 73.4 °F 96% 30.08 in 10.0 mi SSW 8.1 mph - N/A   Clear
6:53 AM 75.2 °F - 73.4 °F 94% 30.09 in 10.0 mi SSW 9.2 mph - N/A   Mostly Cloudy
6:57 AM 74.7 °F - 73.4 °F 96% 30.09 in 10.0 mi SSW 8.1 mph - N/A   Scattered Clouds
7:17 AM 74.8 °F - 73.6 °F 96% 30.09 in 10.0 mi SSW 8.1 mph - N/A   Scattered Clouds
7:37 AM 75.2 °F - 73.6 °F 95% 30.09 in 10.0 mi SSW 6.9 mph - N/A   Scattered Clouds
7:42 AM 75.4 °F - 73.8 °F 95% 30.09 in 10.0 mi SSW 6.9 mph - N/A   Scattered Clouds
7:53 AM 75.2 °F - 73.4 °F 94% 30.10 in 10.0 mi South 9.2 mph - N/A   Mostly Cloudy
8:53 AM 78.8 °F - 73.4 °F 83% 30.09 in 10.0 mi SSW 11.5 mph - N/A   Mostly Cloudy
9:53 AM 80.6 °F 85.4 °F 73.4 °F 79% 30.10 in 10.0 mi SSW 11.5 mph 17.3 mph N/A   Mostly Cloudy
10:53 AM 82.4 °F 88.2 °F 73.4 °F 74% 30.09 in 10.0 mi WSW 11.5 mph - N/A   Mostly Cloudy
11:53 AM 84.2 °F 92.3 °F 75.2 °F 74% 30.08 in 10.0 mi SW 11.5 mph - N/A   Mostly Cloudy
11:58 AM 84.2 °F 92.3 °F 75.0 °F 74% 30.08 in 10.0 mi SW 11.5 mph - N/A   Scattered Clouds
12:16 PM 84.7 °F 92.8 °F 74.7 °F 72% 30.08 in 10.0 mi SW 11.5 mph - N/A   Scattered Clouds
12:53 PM 86.0 °F 95.1 °F 75.2 °F 70% 30.08 in 10.0 mi SSW 9.2 mph - N/A   Mostly Cloudy
1:50 PM 86.0 °F 93.4 °F 73.4 °F 66% 30.08 in 10.0 mi SW 12.7 mph - N/A   Overcast
2:50 PM 86.0 °F 93.4 °F 73.4 °F 66% 30.08 in 10.0 mi SSW 11.5 mph - N/A   Overcast
3:50 PM 77.0 °F - 71.6 °F 83% 30.08 in 10.0 mi SW 17.3 mph - N/A   Partly Cloudy
4:55 PM 84.2 °F 90.9 °F 73.4 °F 70% 30.05 in 10.0 mi SSW 11.5 mph - N/A   Mostly Cloudy
5:55 PM 82.4 °F 88.2 °F 73.4 °F 74% 30.04 in 10.0 mi South 11.5 mph 17.3 mph N/A   Mostly Cloudy
6:45 PM 80.6 °F 85.4 °F 73.4 °F 79% 30.04 in 10.0 mi South 11.5 mph - N/A   Overcast
7:50 PM 80.6 °F 85.4 °F 73.4 °F 79% 30.05 in 10.0 mi South 11.5 mph - N/A   Overcast
8:50 PM 78.8 °F - 73.4 °F 83% 30.05 in 10.0 mi South 10.4 mph 17.3 mph N/A   Overcast
10:59 PM 77.2 °F - 74.8 °F 92% 30.05 in 10.0 mi South 8.1 mph - N/A   Clear
11:19 PM 77.0 °F - 75.2 °F 94% 30.05 in 10.0 mi SSW 9.2 mph - N/A   Clear
11:39 PM 77.0 °F - 75.2 °F 94% 30.05 in 10.0 mi SSW 8.1 mph - N/A   Clear
11:59 PM 76.6 °F - 75.4 °F 96% 30.04 in 10.0 mi South 9.2 mph - N/A   Clear